FW2617 Weather Reports


Display with metric or nautical units.
time (UTC)temp
F
wind
direction
speed
MPH
gust
MPH
rain 1hr
in
rain 24hr
in
rain mn
in
humidity
%
barometer
mb
20260509004504 74 167 2.0 5.0 0.00 0.00 0.00 81 1005.8
20260509003604 75 164 3.0 7.0 0.00 0.00 0.00 80 1006.0
20260509002704 75 183 3.0 7.0 0.00 0.00 0.00 80 1006.1
20260509001803 76 187 2.0 6.0 0.00 0.00 0.00 79 1006.1
20260509000904 76 175 3.0 8.0 0.00 0.00 0.00 78 1006.0
20260509000004 76 165 3.0 8.0 0.00 0.00 0.00 78 1005.9
20260508235424 76 166 3.0 7.0 0.00 0.00 0.00 78 1005.9
20260508234504 76 162 3.0 8.0 0.00 0.00 0.00 78 1005.8
20260508233625 76 163 3.0 8.0 0.00 0.00 0.00 78 1005.7
20260508232704 76 180 5.0 10.0 0.00 0.00 0.00 78 1005.9
20260508231803 76 169 5.0 11.0 0.00 0.00 0.00 77 1005.9
20260508230904 76 182 4.0 11.0 0.00 0.00 0.00 77 1005.9
20260508230004 76 169 3.0 8.0 0.00 0.00 0.00 77 1005.8
20260508225425 76 162 4.0 9.0 0.00 0.00 0.00 78 1006.0
20260508224504 76 166 4.0 9.0 0.00 0.00 0.00 78 1006.1
20260508223625 75 166 4.0 12.0 0.00 0.00 0.00 77 1006.2
20260508222703 75 161 5.0 10.0 0.00 0.00 0.00 77 1006.3
20260508221804 75 168 4.0 9.0 0.00 0.00 0.00 77 1006.3
20260508220904 75 164 2.0 6.0 0.00 0.00 0.00 77 1006.5
20260508220004 75 156 2.0 6.0 0.00 0.00 0.00 77 1006.8
20260508215424 75 145 2.0 6.0 0.00 0.00 0.00 77 1006.9
20260508214503 74 159 3.0 8.0 0.00 0.00 0.00 77 1006.9
20260508213603 74 167 3.0 6.0 0.00 0.00 0.00 76 1007.1
20260508212704 75 174 2.0 7.0 0.00 0.00 0.00 75 1007.2
20260508211804 75 169 3.0 11.0 0.00 0.00 0.00 75 1007.3
20260508210903 75 152 4.0 11.0 0.00 0.00 0.00 75 1007.0
20260508210004 73 149 8.0 14.0 0.00 0.00 0.00 77 1007.0
20260508205404 73 144 7.0 15.0 0.00 0.00 0.00 77 1006.8
20260508204504 72 144 5.0 13.0 0.00 0.00 0.00 77 1007.2
20260508203604 71 150 4.0 12.0 0.00 0.00 0.00 79 1007.4
20260508202724 70 155 3.0 9.0 0.00 0.00 0.00 78 1007.7
20260508201804 70 163 3.0 7.0 0.00 0.00 0.00 78 1008.4
20260508200903 70 172 3.0 7.0 0.00 0.00 0.00 78 1008.7
20260508200004 71 205 3.0 8.0 0.00 0.00 0.00 77 1009.3
20260508195403 71 183 3.0 9.0 0.00 0.00 0.00 77 1009.3
20260508194524 71 192 2.0 8.0 0.00 0.00 0.00 76 1008.9
20260508193603 72 204 3.0 7.0 0.00 0.00 0.00 74 1009.2
20260508192703 72 165 3.0 6.0 0.00 0.00 0.00 74 1008.8
20260508191804 72 159 4.0 9.0 0.00 0.00 0.00 74 1008.9
20260508190903 72 172 5.0 10.0 0.00 0.00 0.00 74 1009.1
20260508190003 72 171 4.0 10.0 0.00 0.00 0.00 74 1009.0
20260508185425 71 177 3.0 10.0 0.00 0.00 0.00 75 1009.2
20260508184504 70 164 3.0 8.0 0.00 0.00 0.00 75 1009.5
20260508183603 70 154 3.0 11.0 0.00 0.00 0.00 74 1009.6
20260508182725 70 160 4.0 9.0 0.00 0.00 0.00 74 1009.8
20260508181804 70 161 4.0 9.0 0.00 0.00 0.00 74 1010.0
20260508180904 70 162 4.0 11.0 0.00 0.00 0.00 74 1010.2
20260508180025 70 163 4.0 13.0 0.00 0.00 0.00 73 1010.3
20260508175403 71 158 3.0 13.0 0.00 0.00 0.00 71 1010.3
20260508174524 72 153 4.0 10.0 0.00 0.00 0.00 70 1010.2
20260508173603 73 131 2.0 7.0 0.00 0.00 0.00 69 1010.1
20260508172704 72 134 2.0 6.0 0.00 0.00 0.00 73 1010.0
20260508171803 71 150 3.0 7.0 0.00 0.00 0.00 71 1010.5
20260508170904 70 147 4.0 10.0 0.00 0.00 0.00 71 1010.6
20260508170004 70 159 4.0 9.0 0.00 0.00 0.00 72 1010.8
20260508165403 70 158 3.0 9.0 0.00 0.00 0.00 71 1010.9
20260508164524 70 153 4.0 10.0 0.00 0.00 0.00 72 1011.0
20260508163603 72 139 3.0 6.0 0.00 0.00 0.00 71 1011.1
20260508162703 72 147 2.0 6.0 0.00 0.00 0.00 71 1011.0
20260508161803 71 103 2.0 6.0 0.00 0.00 0.00 76 1011.1
20260508160924 69 87 1.0 4.0 0.00 0.00 0.00 78 1011.2
20260508160004 67 95 1.0 3.0 0.00 0.00 0.00 78 1011.5
20260508155425 67 92 1.0 3.0 0.00 0.00 0.00 78 1011.6
20260508154503 66 108 1.0 3.0 0.00 0.00 0.00 78 1011.9
20260508153603 66 139 1.0 2.0 0.00 0.00 0.00 79 1012.1
20260508152724 66 136 0.0 2.0 0.00 0.00 0.00 79 1012.2
20260508151803 65 142 0.0 1.0 0.00 0.00 0.00 81 1012.2
20260508150903 65 149 1.0 5.0 0.00 0.00 0.00 81 1012.4
20260508150004 65 153 2.0 4.0 0.00 0.00 0.00 80 1012.4
20260508145424 65 152 1.0 4.0 0.00 0.00 0.00 80 1012.3
20260508144503 65 154 0.0 2.0 0.00 0.00 0.00 82 1012.4
20260508143603 64 118 1.0 4.0 0.00 0.00 0.00 82 1012.3
20260508142703 64 82 1.0 3.0 0.00 0.00 0.00 83 1012.2
20260508141803 64 66 1.0 4.0 0.00 0.00 0.00 84 1012.2
20260508140903 64 103 0.0 2.0 0.00 0.00 0.00 85 1012.1
20260508140003 63 65 1.0 4.0 0.00 0.00 0.00 85 1012.3
20260508135424 63 66 2.0 5.0 0.00 0.00 0.00 86 1012.4
20260508134503 63 57 1.0 5.0 0.00 0.00 0.00 86 1012.5
20260508133603 62 0 0.0 0.0 0.00 0.00 0.00 87 1012.4
20260508132703 62 0 0.0 0.0 0.00 0.00 0.00 87 1012.5
20260508131803 61 144 0.0 3.0 0.00 0.00 0.00 89 1012.4
20260508130903 60 144 0.0 2.0 0.00 0.00 0.00 90 1012.7
20260508130004 59 0 0.0 0.0 0.00 0.00 0.00 90 1012.7
20260508125403 59 0 0.0 0.0 0.00 0.00 0.00 90 1012.8
20260508124503 58 0 0.0 0.0 0.00 0.00 0.00 90 1012.9
20260508123603 58 0 0.0 0.0 0.00 0.00 0.00 90 1012.7
20260508122704 57 0 0.0 0.0 0.00 0.00 0.00 89 1012.5
20260508121803 57 0 0.0 0.0 0.00 0.00 0.00 90 1012.4
20260508120903 57 0 0.0 0.0 0.00 0.00 0.00 90 1012.4
20260508120004 57 0 0.0 0.0 0.00 0.00 0.00 89 1012.3
20260508115403 57 0 0.0 0.0 0.00 0.00 0.00 89 1012.5
20260508114503 57 0 0.0 0.0 0.00 0.00 0.00 89 1012.5
20260508113603 57 0 0.0 0.0 0.00 0.00 0.00 89 1012.7
20260508112703 57 0 0.0 0.0 0.00 0.00 0.00 89 1012.5
20260508111824 57 0 0.0 0.0 0.00 0.00 0.00 89 1012.3
20260508110903 58 0 0.0 0.0 0.00 0.00 0.00 90 1012.4
20260508110003 58 0 0.0 0.0 0.00 0.00 0.00 89 1012.5
20260508105403 58 0 0.0 0.0 0.00 0.00 0.00 89 1012.8
20260508104504 58 144 0.0 2.0 0.00 0.00 0.00 89 1012.6
20260508103603 58 144 0.0 2.0 0.00 0.00 0.00 89 1012.6
20260508102703 58 144 0.0 3.0 0.00 0.00 0.00 88 1012.3
20260508101804 58 0 0.0 0.0 0.00 0.00 0.00 87 1012.5
20260508100903 58 144 0.0 1.0 0.00 0.00 0.00 87 1012.8
20260508100004 59 144 1.0 2.0 0.00 0.00 0.00 87 1012.3
20260508095403 59 144 1.0 2.0 0.00 0.00 0.00 87 1012.3
20260508094503 59 144 0.0 1.0 0.00 0.00 0.00 88 1012.1
20260508093603 59 144 0.0 1.0 0.00 0.00 0.00 88 1012.0
20260508092703 59 152 1.0 4.0 0.00 0.00 0.00 88 1012.1
20260508091803 60 0 0.0 0.0 0.00 0.00 0.00 87 1012.3
20260508090903 60 0 0.0 0.0 0.00 0.00 0.00 87 1012.3
20260508090003 60 0 0.0 0.0 0.00 0.00 0.00 87 1012.3
20260508085403 60 0 0.0 0.0 0.00 0.00 0.00 87 1012.2
20260508084503 60 0 0.0 0.0 0.00 0.00 0.00 87 1012.2
20260508083603 60 0 0.0 0.0 0.00 0.00 0.00 87 1012.4
20260508082703 60 0 0.0 0.0 0.00 0.00 0.00 87 1012.5
20260508081804 60 0 0.0 0.0 0.00 0.00 0.00 86 1012.6
20260508080903 60 0 0.0 0.0 0.00 0.00 0.00 86 1012.8
20260508080004 60 0 0.0 0.0 0.00 0.00 0.00 86 1013.1
20260508075404 60 0 0.0 0.0 0.00 0.00 0.00 86 1013.5
20260508074524 60 0 0.0 0.0 0.00 0.00 0.00 86 1013.6
20260508073624 60 0 0.0 0.0 0.00 0.00 0.00 85 1013.6
20260508072703 59 0 0.0 0.0 0.00 0.00 0.00 84 1013.5
20260508071803 60 0 0.0 0.0 0.00 0.00 0.00 84 1013.3
20260508070903 60 0 0.0 0.0 0.00 0.00 0.00 83 1013.2
20260508070004 60 0 0.0 0.0 0.00 0.00 0.00 83 1012.9
20260508065403 60 0 0.0 0.0 0.00 0.00 0.00 82 1013.1
20260508064524 60 0 0.0 0.0 0.00 0.00 0.00 82 1013.1
20260508063624 60 0 0.0 0.0 0.00 0.00 0.00 82 1013.2
20260508062704 60 0 0.0 0.0 0.00 0.00 0.00 81 1013.5
20260508061803 60 0 0.0 0.0 0.00 0.00 0.00 81 1013.6
20260508060903 60 0 0.0 0.0 0.00 0.00 0.00 81 1013.6
20260508060024 61 0 0.0 0.0 0.00 0.00 0.00 81 1013.8
20260508055404 61 0 0.0 0.0 0.00 0.00 0.00 81 1013.8
20260508054503 61 0 0.0 0.0 0.00 0.00 0.00 80 1013.8
20260508053624 61 0 0.0 0.0 0.00 0.00 0.00 80 1013.8
20260508052703 61 0 0.0 0.0 0.00 0.00 0.00 80 1014.0
20260508051803 61 0 0.0 0.0 0.00 0.00 0.00 79 1014.1
20260508050903 61 0 0.0 0.0 0.00 0.00 0.00 79 1014.0
20260508050025 62 0 0.0 0.0 0.00 0.00 0.00 79 1014.0
20260508045403 62 0 0.0 0.0 0.00 0.00 0.00 79 1014.1
20260508044503 62 0 0.0 0.0 0.00 0.00 0.00 79 1013.9
20260508043624 62 0 0.0 0.0 0.00 0.00 0.00 80 1013.7
20260508042704 62 0 0.0 0.0 0.00 0.00 0.00 79 1013.9
20260508041803 62 0 0.0 0.0 0.00 0.00 0.00 77 1013.8
20260508040924 62 0 0.0 0.0 0.00 0.00 0.00 77 1013.8
20260508040003 63 0 0.0 0.0 0.00 0.00 0.00 77 1013.9
20260508035403 63 0 0.0 0.0 0.00 0.00 0.00 76 1013.9
20260508034503 63 0 0.0 0.0 0.00 0.00 0.00 75 1013.8
20260508033603 63 175 0.0 1.0 0.00 0.00 0.00 75 1013.6
20260508032724 63 175 0.0 2.0 0.00 0.00 0.00 74 1013.7
20260508031824 63 174 0.0 1.0 0.00 0.00 0.00 72 1013.3
20260508030904 63 175 0.0 2.0 0.00 0.00 0.00 72 1013.1
20260508030004 64 174 0.0 1.0 0.00 0.00 0.00 73 1012.8
20260508025403 64 174 0.0 1.0 0.00 0.00 0.00 71 1012.7
20260508024503 64 0 0.0 0.0 0.00 0.00 0.00 71 1012.9
20260508023603 64 0 0.0 0.0 0.00 0.00 0.00 70 1012.7
20260508022703 64 0 0.0 0.0 0.00 0.00 0.00 71 1012.7
20260508021803 65 0 0.0 0.0 0.00 0.00 0.00 69 1012.8
20260508020903 65 174 0.0 1.0 0.00 0.00 0.00 69 1012.6
20260508020004 65 175 0.0 2.0 0.00 0.00 0.00 69 1013.0
20260508015425 65 175 0.0 2.0 0.00 0.00 0.00 69 1012.8
20260508014524 65 175 1.0 2.0 0.00 0.00 0.00 69 1013.1
20260508013603 66 175 0.0 1.0 0.00 0.00 0.00 68 1012.8
20260508012703 66 174 0.0 1.0 0.00 0.00 0.00 67 1012.9
20260508011803 66 174 0.0 1.0 0.00 0.00 0.00 66 1012.9
20260508010903 66 174 0.0 2.0 0.00 0.00 0.00 65 1012.8
20260508010004 66 174 0.0 2.0 0.00 0.00 0.00 65 1012.7
20260508005405 66 174 1.0 3.0 0.00 0.00 0.00 65 1012.8